CW9664 Weather Reports


Display with metric or nautical units.
time (UTC)temp
F
wind
direction
speed
MPH
gust
MPH
rain 1hr
in
rain 24hr
in
rain mn
in
humidity
%
barometer
mb
20191209192407 60 267 1.0 8.0 0.00 0.00 0.00 80 1014.9
20191209191408 60 223 1.0 2.0 0.00 0.00 0.00 81 1014.9
20191209190907 60 225 0.0 0.0 0.00 0.00 0.00 82 1014.9
20191209190407 60 225 1.0 3.0 0.00 0.00 0.00 82 1014.9
20191209185407 60 230 0.0 0.0 0.00 0.00 0.00 84 1014.9
20191209184907 59 165 1.0 3.0 0.00 0.00 0.00 84 1015.1
20191209183906 59 257 2.0 5.0 0.00 0.00 0.00 85 1015.2
20191209182907 59 291 1.0 6.0 0.00 0.00 0.00 86 1015.2
20191209182407 59 242 0.0 0.0 0.00 0.00 0.00 86 1015.2
20191209181417 58 252 0.0 0.0 0.00 0.00 0.00 87 1015.2
20191209180907 57 225 0.0 0.0 0.00 0.00 0.00 87 1015.5
20191209180407 57 225 0.0 0.0 0.00 0.00 0.00 87 1015.5
20191209175907 57 248 0.0 0.0 0.00 0.00 0.00 87 1015.5
20191209174907 57 248 0.0 0.0 0.00 0.00 0.00 87 1015.5
20191209174407 57 248 0.0 0.0 0.00 0.00 0.00 88 1015.5
20191209173906 56 248 0.0 0.0 0.00 0.00 0.00 88 1015.5
20191209172908 56 248 0.0 0.0 0.00 0.00 0.00 88 1015.5
20191209172407 56 248 0.0 0.0 0.00 0.00 0.00 88 1015.2
20191209171907 56 270 0.0 0.0 0.00 0.00 0.00 88 1015.5
20191209171407 56 270 0.0 0.0 0.00 0.00 0.00 88 1015.5
20191209170907 55 284 0.0 0.0 0.00 0.00 0.00 88 1015.5
20191209164907 55 246 0.0 1.0 0.00 0.00 0.00 87 1015.5
20191209164407 54 260 0.0 1.0 0.00 0.00 0.00 87 1015.3
20191209163907 54 252 0.0 1.0 0.00 0.00 0.00 87 1015.5
20191209163407 54 292 0.0 1.0 0.00 0.00 0.00 87 1015.3
20191209162407 54 205 0.0 1.0 0.00 0.00 0.00 87 1015.5
20191209161906 54 225 0.0 0.0 0.00 0.00 0.00 87 1015.3
20191209161406 54 225 0.0 0.0 0.00 0.00 0.00 87 1015.5
20191209160407 54 270 0.0 1.0 0.00 0.00 0.00 87 1015.5
20191209155406 54 338 0.0 0.0 0.00 0.00 0.00 87 1015.1
20191209154907 54 338 0.0 0.0 0.00 0.00 0.00 87 1014.9
20191209154406 54 338 0.0 0.0 0.00 0.00 0.00 87 1014.9
20191209153407 54 338 0.0 0.0 0.00 0.00 0.00 87 1014.9
20191209152907 54 338 0.0 0.0 0.00 0.00 0.00 87 1014.9
20191209152407 54 338 0.0 0.0 0.00 0.00 0.00 87 1014.9
20191209151907 54 338 0.0 0.0 0.00 0.00 0.00 87 1014.9
20191209151407 54 338 0.0 0.0 0.00 0.00 0.00 87 1014.9
20191209150906 54 338 0.0 0.0 0.00 0.00 0.00 87 1014.9
20191209145907 54 315 0.0 1.0 0.00 0.00 0.00 87 1014.7
20191209145406 54 292 0.0 2.0 0.00 0.00 0.00 87 1014.9
20191209144406 54 338 0.0 0.0 0.00 0.00 0.00 87 1014.7
20191209143906 54 338 0.0 0.0 0.00 0.00 0.00 87 1014.9
20191209143407 54 45 0.0 0.0 0.00 0.00 0.00 87 1014.9
20191209142406 54 68 0.0 0.0 0.00 0.00 0.00 87 1014.9
20191209141407 54 68 0.0 0.0 0.00 0.00 0.00 87 1014.9
20191209140406 54 68 0.0 0.0 0.00 0.00 0.00 87 1014.9
20191209135907 54 68 0.0 0.0 0.00 0.00 0.00 87 1014.9
20191209135407 54 68 0.0 0.0 0.00 0.00 0.00 87 1014.9
20191209134906 54 68 0.0 0.0 0.00 0.00 0.00 87 1014.9
20191209133906 54 68 0.0 0.0 0.00 0.00 0.00 87 1014.5
20191209133406 54 68 0.0 0.0 0.00 0.00 0.00 87 1014.5
20191209132907 54 68 0.0 0.0 0.00 0.00 0.00 87 1014.5
20191209132407 54 68 0.0 0.0 0.00 0.00 0.00 87 1014.5
20191209131907 54 68 0.0 0.0 0.00 0.00 0.00 87 1014.5
20191209130907 54 68 0.0 0.0 0.00 0.00 0.00 86 1014.5
20191209130412 55 68 0.0 0.0 0.00 0.00 0.00 86 1014.2
20191209125923 55 68 0.0 0.0 0.00 0.00 0.00 87 1014.2
20191209125407 55 68 0.0 0.0 0.00 0.00 0.00 86 1014.2
20191209124407 55 68 0.0 0.0 0.00 0.00 0.00 86 1014.2
20191209121906 55 68 0.0 0.0 0.00 0.00 0.00 86 1013.8
20191209121407 55 68 0.0 0.0 0.00 0.00 0.00 86 1013.8
20191209120907 55 55 0.0 0.0 0.00 0.00 0.00 86 1014.2
20191209115406 55 338 0.0 0.0 0.00 0.00 0.00 86 1014.2
20191209114906 55 338 0.0 0.0 0.00 0.00 0.00 86 1014.2
20191209114406 55 338 0.0 0.0 0.00 0.00 0.00 86 1014.2
20191209113907 55 338 0.0 0.0 0.00 0.00 0.00 86 1014.4
20191209113406 55 338 0.0 0.0 0.00 0.00 0.00 86 1014.2
20191209112907 55 338 0.0 0.0 0.00 0.00 0.00 86 1014.2
20191209111906 55 338 0.0 0.0 0.00 0.00 0.00 86 1014.2
20191209111406 55 338 0.0 0.0 0.00 0.00 0.00 86 1014.5
20191209110906 55 338 0.0 0.0 0.00 0.00 0.00 86 1014.5
20191209110407 55 338 0.0 0.0 0.00 0.00 0.00 86 1014.5
20191209105907 55 0 0.0 0.0 0.00 0.00 0.00 86 1014.5
20191209105406 55 0 0.0 0.0 0.00 0.00 0.00 86 1014.5
20191209104907 55 0 0.0 0.0 0.00 0.00 0.00 86 1014.5
20191209104406 55 338 0.0 0.0 0.00 0.00 0.00 86 1014.5
20191209103407 55 338 0.0 0.0 0.00 0.00 0.00 86 1014.9
20191209102406 55 338 0.0 0.0 0.00 0.00 0.00 86 1014.7
20191209101907 55 338 0.0 0.0 0.00 0.00 0.00 86 1014.5
20191209100907 55 338 0.0 0.0 0.00 0.00 0.00 86 1014.9
20191209100407 55 338 0.0 0.0 0.00 0.00 0.00 86 1014.8
20191209095907 55 338 0.0 0.0 0.00 0.00 0.00 86 1014.9
20191209095406 55 338 0.0 0.0 0.00 0.00 0.00 86 1014.5
20191209094907 55 338 0.0 0.0 0.00 0.00 0.00 86 1014.7
20191209094408 55 338 0.0 0.0 0.00 0.00 0.00 86 1014.5
20191209093906 55 338 0.0 0.0 0.00 0.00 0.00 85 1014.5
20191209093407 55 338 0.0 0.0 0.00 0.00 0.00 85 1014.7
20191209092407 55 338 0.0 0.0 0.00 0.00 0.00 85 1014.9
20191209091907 55 338 0.0 0.0 0.00 0.00 0.00 85 1014.9
20191209090906 55 338 0.0 0.0 0.00 0.00 0.00 85 1014.9
20191209090407 55 338 0.0 0.0 0.00 0.00 0.00 85 1015.2
20191209085907 55 338 0.0 0.0 0.00 0.00 0.00 85 1015.2
20191209084907 55 338 0.0 0.0 0.00 0.00 0.00 85 1014.9
20191209084407 55 338 0.0 0.0 0.00 0.00 0.00 85 1014.9
20191209083907 55 338 0.0 0.0 0.00 0.00 0.00 85 1014.9
20191209083406 56 338 0.0 0.0 0.00 0.00 0.00 85 1014.9
20191209082907 56 338 0.0 0.0 0.00 0.00 0.00 85 1014.9
20191209082406 56 22 0.0 0.0 0.00 0.00 0.00 85 1015.2
20191209081907 56 22 0.0 0.0 0.00 0.00 0.00 86 1015.2
20191209081407 56 22 0.0 0.0 0.00 0.00 0.00 85 1015.5
20191209080406 56 22 0.0 0.0 0.00 0.00 0.00 85 1015.2
20191209075906 56 22 0.0 0.0 0.00 0.00 0.00 85 1015.4
20191209074907 56 22 0.0 0.0 0.00 0.00 0.00 85 1015.2
20191209073906 56 22 0.0 0.0 0.00 0.00 0.00 85 1015.1
20191209073406 56 22 0.0 0.0 0.00 0.00 0.00 85 1015.4
20191209072907 56 22 0.0 0.0 0.00 0.00 0.00 85 1015.5
20191209072407 56 22 0.0 0.0 0.00 0.00 0.00 85 1015.5
20191209071406 56 22 0.0 0.0 0.00 0.00 0.00 85 1015.9
20191209065906 55 22 0.0 0.0 0.00 0.00 0.00 85 1015.9
20191209065406 55 22 0.0 0.0 0.00 0.00 0.00 85 1015.9
20191209064907 55 22 0.0 0.0 0.00 0.00 0.00 85 1015.9
20191209063406 55 22 0.0 0.0 0.00 0.00 0.00 85 1015.9
20191209062906 55 22 0.0 0.0 0.00 0.00 0.00 85 1015.8
20191209061907 55 22 0.0 0.0 0.00 0.00 0.00 85 1015.9
20191209061407 55 22 0.0 0.0 0.00 0.00 0.00 85 1015.9
20191209060906 55 22 0.0 0.0 0.00 0.00 0.00 85 1015.9
20191209060407 55 22 0.0 0.0 0.00 0.00 0.00 85 1015.9
20191209055907 55 22 0.0 0.0 0.00 0.00 0.00 85 1015.9
20191209054906 56 22 0.0 0.0 0.00 0.00 0.00 85 1015.9
20191209053907 55 22 0.0 0.0 0.00 0.00 0.00 85 1015.8
20191209053407 55 22 0.0 0.0 0.00 0.00 0.00 85 1015.6
20191209052906 55 22 0.0 0.0 0.00 0.00 0.00 85 1015.6
20191209052407 55 22 0.0 0.0 0.00 0.00 0.00 85 1015.9
20191209051906 55 22 0.0 0.0 0.00 0.00 0.00 85 1015.5
20191209050907 55 22 0.0 0.0 0.00 0.00 0.00 85 1015.5
20191209050406 55 22 0.0 0.0 0.00 0.00 0.00 85 1015.5
20191209044907 55 22 0.0 0.0 0.00 0.03 0.00 85 1015.6
20191209044406 55 22 0.0 0.0 0.00 0.03 0.00 84 1015.9
20191209042406 55 22 0.0 0.0 0.00 0.03 0.00 84 1015.9
20191209040907 56 22 0.0 0.0 0.00 0.06 0.00 84 1015.9
20191209040406 56 22 0.0 0.0 0.00 0.06 0.00 84 1015.9
20191209035906 56 22 0.0 0.0 0.00 0.06 0.00 84 1015.9
20191209034907 56 22 0.0 0.0 0.00 0.09 0.00 83 1016.2
20191209033906 56 22 0.0 0.0 0.00 0.09 0.00 83 1016.3
20191209033407 56 22 0.0 0.0 0.00 0.12 0.00 83 1016.5
20191209032907 56 22 0.0 0.0 0.00 0.12 0.00 83 1016.3
20191209032407 56 22 0.0 0.0 0.00 0.12 0.00 83 1016.2
20191209031907 57 22 0.0 0.0 0.00 0.12 0.00 83 1016.2
20191209031407 57 22 0.0 0.0 0.00 0.12 0.00 83 1016.2
20191209030906 57 22 0.0 0.0 0.00 0.12 0.00 83 1016.2
20191209030406 57 22 0.0 0.0 0.00 0.12 0.00 83 1016.2
20191209025907 57 41 0.0 0.0 0.00 0.12 0.00 83 1016.2
20191209024407 57 45 0.0 0.0 0.00 0.12 0.00 82 1016.2
20191209023907 57 45 0.0 0.0 0.00 0.12 0.00 82 1016.2
20191209023407 57 158 0.0 0.0 0.00 0.12 0.00 82 1016.3
20191209022906 57 158 0.0 0.0 0.00 0.15 0.00 82 1016.2
20191209021907 58 158 0.0 0.0 0.00 0.15 0.00 82 1016.5
20191209021407 58 158 0.0 0.0 0.00 0.15 0.00 81 1016.5
20191209020906 58 158 0.0 0.0 0.00 0.15 0.00 81 1016.2
20191209020406 58 158 0.0 0.0 0.00 0.15 0.00 81 1016.5
20191209015907 58 158 0.0 0.0 0.00 0.15 0.00 81 1016.2
20191209015407 58 158 0.0 0.0 0.00 0.15 0.00 81 1016.2
20191209014407 58 158 0.0 0.0 0.00 0.15 0.00 81 1016.2
20191209013406 58 158 0.0 0.0 0.00 0.18 0.00 81 1016.2
20191209012907 58 158 0.0 0.0 0.00 0.18 0.00 80 1016.2
20191209012407 58 158 0.0 0.0 0.00 0.18 0.00 80 1016.3
20191209011407 58 158 0.0 0.0 0.00 0.18 0.00 80 1016.2
20191209010907 58 158 0.0 0.0 0.00 0.18 0.00 80 1016.2
20191209005406 59 158 0.0 0.0 0.00 0.18 0.00 79 1016.0
20191209004906 59 158 0.0 0.0 0.00 0.18 0.00 79 1016.2
20191209004406 59 158 0.0 0.0 0.00 0.18 0.00 78 1016.2
20191209003907 59 158 0.0 0.0 0.00 0.18 0.00 78 1016.2
20191209002907 59 158 0.0 0.0 0.00 0.18 0.00 78 1016.0
20191209002406 59 158 0.0 0.0 0.00 0.18 0.00 78 1016.2
20191209001906 60 158 0.0 0.0 0.00 0.18 0.00 78 1016.2
20191209001407 60 158 0.0 0.0 0.00 0.18 0.00 78 1016.2
20191209000907 60 158 0.0 0.0 0.00 0.18 0.00 78 1016.2
20191209000406 60 158 0.0 0.0 0.00 0.18 0.00 78 1016.0
20191208235906 60 158 0.0 0.0 0.00 0.18 0.00 77 1016.2
20191208235407 60 158 0.0 0.0 0.00 0.18 0.00 77 1016.2
20191208234907 60 158 0.0 0.0 0.00 0.18 0.00 77 1015.9
20191208233406 60 202 0.0 0.0 0.00 0.18 0.00 77 1015.9
20191208232906 60 202 0.0 0.0 0.00 0.18 0.00 76 1015.9
20191208232406 60 202 0.0 0.0 0.00 0.18 0.00 76 1015.9
20191208230407 61 248 0.0 0.0 0.00 0.18 0.00 76 1016.2
20191208225906 61 158 0.0 0.0 0.00 0.18 0.00 76 1016.2
20191208223906 61 135 1.0 3.0 0.00 0.18 0.00 76 1015.9
20191208222907 61 135 0.0 1.0 0.00 0.18 0.00 76 1015.9
20191208222406 61 22 0.0 0.0 0.00 0.18 0.00 76 1016.2
20191208221907 61 22 0.0 0.0 0.00 0.18 0.00 76 1016.2
20191208220906 61 22 0.0 0.0 0.00 0.18 0.00 76 1016.2
20191208215907 61 0 0.0 0.0 0.00 0.18 0.00 76 1016.5
20191208214906 60 0 0.0 0.0 0.00 0.18 0.00 76 1016.5
20191208214406 60 0 0.0 0.0 0.00 0.18 0.00 76 1016.5
20191208213907 60 0 0.0 0.0 0.00 0.18 0.00 76 1016.5
20191208213407 60 0 0.0 0.0 0.00 0.18 0.00 76 1016.5
20191208212907 60 0 0.0 0.0 0.00 0.18 0.00 76 1016.5
20191208211906 60 338 0.0 0.0 0.00 0.18 0.00 76 1016.5
20191208211407 60 338 0.0 0.0 0.00 0.18 0.00 76 1016.8
20191208210906 60 338 0.0 0.0 0.00 0.18 0.00 76 1016.8
20191208205906 60 338 0.0 0.0 0.00 0.18 0.00 76 1016.9
20191208204906 60 22 0.0 0.0 0.00 0.18 0.00 76 1016.5
20191208204407 60 68 0.0 0.0 0.00 0.18 0.00 76 1016.9
20191208203406 61 68 0.0 0.0 0.00 0.18 0.00 77 1016.9
20191208202906 61 68 0.0 0.0 0.00 0.18 0.00 77 1016.9
20191208201907 61 69 2.0 6.0 0.00 0.18 0.00 77 1016.5
20191208201406 60 68 3.0 5.0 0.00 0.18 0.00 78 1016.8
20191208200906 60 68 1.0 5.0 0.00 0.18 0.00 78 1016.9
20191208200407 60 20 1.0 6.0 0.00 0.18 0.00 78 1016.9
20191208195906 60 45 1.0 2.0 0.00 0.18 0.00 78 1017.2
20191208195406 60 68 1.0 5.0 0.00 0.18 0.00 78 1017.6
20191208193906 59 90 0.0 0.0 0.00 0.18 0.00 79 1017.6
20191208193406 59 76 0.0 0.0 0.00 0.18 0.00 79 1017.6